Boeing Field King County International Airport
KBFI : rendu visible

Aérodrome :











RETROUVEZ-NOUS SUR...

 
LOGIN :

S'inscrire | Disclaimer

   EN    FR    IT 

 









Légende :    VFR   VFR Marginal   IFR   IFR Intensif   IFR Très Intensif
Visi : 
Plafond : 
>= 8 km
>= 3000ft
5 à 8 km
1000 à 3000 ft
1500m à 5 km
500 à 1000 ft
800 à 1500m
200 à 500 ft
< 800m
< 200 ft
Symboles :   Orages  Brouillard  Fortes neiges  Fortes précipitations  Vent > 20 kt






- Altitude de l'aérodrome : 21 ft
- Code IATA : BFI


KBFI - Boeing Field King County International

DERNIER METAR :
  • 022253Z 31005KT 10SM -RA SCT026 OVC060 14/09 A3021 RMK AO2 RAB19 SLP229 P0000 T01440089

METARs EXPIRÉS :
  • 022153Z VRB04KT 10SM BKN060 OVC090 18/07 A3018 RMK AO2 RAB41E52 SLP218 P0000 T01830072
  • 022053Z 19008KT 10SM BKN080 OVC110 18/07 A3016 RMK AO2 SLP212 T01780067 56009

TAF KBFI
Valide du 03 à 00h jusqu'au 04 à 00h UTC


022321Z 0300/0324 30006KT P6SM VCSH SCT030 OVC060
FM030300 VRB04KT P6SM OVC050
FM031200 VRB03KT P6SM BKN025 OVC040
FM031800 29006KT P6SM SCT030 BKN050
FIR KZSE / Amérique du Nord



MET'MAP, la Météo Aéronautique d'un coup d'oeil ! - Copyright ORBIFLY Décembre 2007 - Disclaimer

ORBIFLY MET'MAP TEAM :

Programmation & Développement : Alexandra Zaïnal
Sur une idée originale de : Baudouin d'Aumeries
Assistance à la programmation : Marc-Olivier Méhu
Soutien technique & logistique : Manuel Goepfert

Contact : metmap@orbifly.com




SOURCES & CREDITS :

   NOAA       Earth
Advisory